TimeCST,TemperatureF,Dew PointF,Humidity,Sea Level PressureIn,VisibilityMPH,Wind Direction,Wind SpeedMPH,Gust SpeedMPH,PrecipitationIn,Events,Conditions,WindDirDegrees,DateUTC
12:48 AM,51.8,51.8,100,30.00,0.5,Calm,Calm,-,N/A,Fog,Fog,0,2012-12-09 06:48:00
12:53 AM,53.1,52.0,96,30.00,0.5,Calm,Calm,-,N/A,Fog,Fog,0,2012-12-09 06:53:00
1:53 AM,51.1,50.0,96,29.99,0.5,Calm,Calm,-,N/A,Fog,Fog,0,2012-12-09 07:53:00
2:00 AM,51.8,51.8,100,29.99,0.2,Calm,Calm,-,N/A,Fog,Fog,0,2012-12-09 08:00:00
2:50 AM,53.6,51.8,94,29.99,0.5,Calm,Calm,-,N/A,Fog,Fog,0,2012-12-09 08:50:00
2:53 AM,53.1,52.0,96,29.99,0.2,Calm,Calm,-,N/A,Fog,Fog,0,2012-12-09 08:53:00
3:53 AM,51.1,51.1,100,30.00,0.2,Calm,Calm,-,N/A,Fog,Fog,0,2012-12-09 09:53:00
4:53 AM,52.0,51.1,97,30.01,0.2,Calm,Calm,-,N/A,Fog,Fog,0,2012-12-09 10:53:00
5:22 AM,51.8,51.8,100,30.00,0.5,Calm,Calm,-,N/A,Fog,Fog,0,2012-12-09 11:22:00
5:29 AM,51.8,50.0,94,30.01,0.2,Calm,Calm,-,N/A,Fog,Fog,0,2012-12-09 11:29:00
5:53 AM,51.1,50.0,96,30.02,0.2,Calm,Calm,-,N/A,Fog,Fog,0,2012-12-09 11:53:00
6:53 AM,50.0,50.0,100,30.04,0.2,Calm,Calm,-,N/A,Fog,Fog,0,2012-12-09 12:53:00
7:11 AM,51.8,50.0,94,30.04,0.5,Calm,Calm,-,N/A,Fog,Fog,0,2012-12-09 13:11:00
7:31 AM,55.4,53.6,94,30.04,1.0,Calm,Calm,-,N/A,,Overcast,0,2012-12-09 13:31:00
7:36 AM,55.4,55.4,100,30.04,4.0,Calm,Calm,-,N/A,,Mostly Cloudy,0,2012-12-09 13:36:00
7:53 AM,57.9,57.0,97,30.05,9.0,Calm,Calm,-,N/A,,Mostly Cloudy,0,2012-12-09 13:53:00
8:02 AM,60.8,59.0,94,30.04,10.0,Calm,Calm,-,N/A,,Mostly Cloudy,0,2012-12-09 14:02:00
8:53 AM,68.0,64.0,87,30.06,10.0,Calm,Calm,-,N/A,,Mostly Cloudy,0,2012-12-09 14:53:00
9:53 AM,71.1,64.0,78,30.06,10.0,SE,8.1,-,N/A,,Overcast,140,2012-12-09 15:53:00
10:25 AM,73.4,62.6,69,30.05,10.0,SE,11.5,-,N/A,,Overcast,140,2012-12-09 16:25:00
10:53 AM,73.9,63.0,68,30.05,10.0,SSE,12.7,-,N/A,,Overcast,160,2012-12-09 16:53:00
11:05 AM,73.4,64.4,73,30.03,10.0,SSE,10.4,-,N/A,,Overcast,150,2012-12-09 17:05:00
12:03 PM,73.4,64.4,73,30.01,10.0,SSE,11.5,-,N/A,,Overcast,160,2012-12-09 18:03:00
12:53 PM,73.9,66.0,76,29.99,10.0,SSE,13.8,-,N/A,,Overcast,160,2012-12-09 18:53:00
1:48 PM,75.2,66.2,73,29.97,10.0,SSE,13.8,-,N/A,,Overcast,150,2012-12-09 19:48:00
1:53 PM,73.9,66.9,79,29.98,10.0,SSE,10.4,-,N/A,,Overcast,150,2012-12-09 19:53:00
2:53 PM,73.0,66.9,81,29.97,10.0,SSE,10.4,-,N/A,,Overcast,160,2012-12-09 20:53:00
3:49 PM,73.4,66.2,78,29.96,10.0,SSE,9.2,-,N/A,,Overcast,150,2012-12-09 21:49:00
3:53 PM,73.0,66.9,81,29.97,10.0,SSE,6.9,-,N/A,,Overcast,150,2012-12-09 21:53:00
4:53 PM,71.1,66.9,87,29.96,10.0,SE,6.9,-,N/A,,Overcast,140,2012-12-09 22:53:00
5:53 PM,71.1,68.0,90,29.96,10.0,SSE,8.1,-,N/A,,Overcast,160,2012-12-09 23:53:00
6:13 PM,71.6,68.0,88,29.96,10.0,South,8.1,-,N/A,,Mostly Cloudy,170,2012-12-10 00:13:00
6:32 PM,71.6,68.0,88,29.96,10.0,South,8.1,-,N/A,,Mostly Cloudy,170,2012-12-10 00:32:00
6:53 PM,71.1,68.0,90,29.97,10.0,SSE,10.4,-,N/A,,Mostly Cloudy,160,2012-12-10 00:53:00
7:18 PM,71.6,68.0,88,29.97,10.0,South,6.9,-,N/A,,Overcast,170,2012-12-10 01:18:00
7:53 PM,72.0,68.0,87,29.98,10.0,South,9.2,-,N/A,,Mostly Cloudy,180,2012-12-10 01:53:00
8:13 PM,71.6,68.0,88,29.97,10.0,South,8.1,-,N/A,,Mostly Cloudy,170,2012-12-10 02:13:00
8:39 PM,71.6,68.0,88,29.96,10.0,South,6.9,-,N/A,,Mostly Cloudy,180,2012-12-10 02:39:00
8:53 PM,71.1,68.0,90,29.96,10.0,South,5.8,-,N/A,,Overcast,180,2012-12-10 02:53:00
9:53 PM,71.1,66.9,87,29.95,10.0,South,10.4,-,N/A,,Scattered Clouds,170,2012-12-10 03:53:00
10:53 PM,71.1,66.9,87,29.95,10.0,South,8.1,17.3,N/A,,Clear,180,2012-12-10 04:53:00
11:53 PM,70.0,66.9,90,29.94,10.0,South,8.1,16.1,N/A,,Clear,190,2012-12-10 05:53:00